Location: T�chigga el Be�da
(16.4766°N, 9.3887°W)
Time: 14:20:02
(UTC+00:00)

Hubble Space Telescope - Pass Details

Date: 27 February 2020
Orbit: 536 x 540 km, 28.5° (Epoch: 29 March)

Event Time Altitude Azimuth Distance (km) Brightness Sun altitude
Rises 20:59:06 0° 302° (WNW) 2,673 5.1 -33.1°
Reaches altitude 10° 21:01:27 10° 309° (NW) 1,782 4.0 -33.7°
Enters shadow 21:01:42 11° 310° (NW) 1,692 3.8 -33.8°
